Weather History for PHNG - March, 2013

Change the Weather History Date:

Thursday, March 21, 2013

  Actual Average Record
Temperature  
Mean Temperature 76 °F -  
Max Temperature 82 °F 75 °F 82 °F (2013)
Min Temperature 69 °F 67 °F 62 °F (2001)
Cooling Degree Days 10    
Growing Degree Days 26 (Base 50)    
Moisture  
Dew Point 65 °F    
Average Humidity 70    
Maximum Humidity 88    
Minimum Humidity 56    
Precipitation  
Precipitation 0.00 in - - ()
Sea Level Pressure  
Sea Level Pressure 30.01 in    
Wind  
Wind Speed 3 mph (SE)    
Max Wind Speed 14 mph    
Max Gust Speed 22 mph    
Visibility 7 miles    
Events      
Averages and records for this station are not official NWS values.
T = Trace of Precipitation, MM = Missing Value Source: NWS Daily Summary

Daily Weather History Graph

Daily Weather History Graph

Search for Another Location

Airport or City:

Trip Planner

Search our weather history database for the weather conditions in past years. The results will help you decide how hot, cold, wet, or windy it might be!

Date:

Astronomy

Mar. 21, 2013 Rise Set
Actual Time 6:33 AM HST 6:42 PM HST
Civil Twilight 6:11 AM HST 7:04 PM HST
Nautical Twilight 5:45 AM HST 7:30 PM HST
Astronomical Twilight 5:19 AM HST 7:56 PM HST
Moon 1:56 PM HST (3/21) 2:28 AM HST (3/21)
Length of Visible Light 12h 53m
Length of Day
12h 08m
Waxing Gibbous, 70% of the Moon is Illuminated
Mar 21
Waxing Gibbous
Mar 26
Full
Apr 2
Last Quarter
Apr 9
New
Apr 18
First Quarter

Hourly Weather History & Observations

Time (HST) Temp. Heat Index Dew Point Humidity Pressure Visibility Wind Dir Wind Speed Gust Speed Precip Events Conditions
12:57 AM 69.8 °F - 64.9 °F 84% 30.03 in 7.0 mi Calm Calm - N/A   Mostly Cloudy
1:57 AM 69.8 °F - 64.9 °F 84% 30.00 in 7.0 mi Calm Calm - N/A   Mostly Cloudy
2:57 AM 69.8 °F - 64.0 °F 82% 29.99 in 7.0 mi Calm Calm - N/A   Mostly Cloudy
3:57 AM 69.8 °F - 64.9 °F 84% 29.99 in 7.0 mi Calm Calm - N/A   Overcast
4:57 AM 69.8 °F - 66.0 °F 88% 30.01 in 7.0 mi Calm Calm - N/A   Mostly Cloudy
5:57 AM 69.8 °F - 66.0 °F 88% 30.01 in 7.0 mi Calm Calm - N/A   Mostly Cloudy
6:57 AM 71.6 °F - 66.0 °F 82% 30.03 in 7.0 mi Calm Calm - N/A   Overcast
7:57 AM 71.6 °F - 66.0 °F 82% 30.05 in 7.0 mi Calm Calm - N/A   Mostly Cloudy
8:57 AM 75.2 °F - 68.0 °F 78% 30.05 in 7.0 mi SE 5.8 mph - N/A   Scattered Clouds
9:57 AM 75.2 °F - 66.9 °F 75% 30.06 in 7.0 mi Variable 5.8 mph - N/A   Partly Cloudy
10:57 AM 80.8 °F 83.2 °F 66.9 °F 63% 30.04 in 7.0 mi East 9.2 mph 16.1 mph N/A   Scattered Clouds
11:57 AM 81.5 °F 84.2 °F 68.0 °F 63% 30.01 in 7.0 mi East 11.5 mph 17.3 mph N/A   Scattered Clouds
12:57 PM 81.5 °F 83.6 °F 66.0 °F 59% 30.00 in 7.0 mi East 12.7 mph - N/A   Scattered Clouds
1:57 PM 81.5 °F 83.6 °F 66.0 °F 59% 29.97 in 7.0 mi East 11.5 mph - N/A   Scattered Clouds
2:57 PM 82.2 °F 85.1 °F 68.0 °F 62% 29.97 in 7.0 mi East 10.4 mph - N/A   Mostly Cloudy
3:57 PM 82.2 °F 85.1 °F 68.0 °F 62% 29.96 in 7.0 mi East 9.2 mph - N/A   Mostly Cloudy
4:57 PM 81.3 °F 84.1 °F 68.0 °F 64% 29.96 in 7.0 mi South 3.5 mph - N/A   Mostly Cloudy
5:57 PM 79.0 °F - 64.9 °F 62% 29.97 in 7.0 mi SSW 5.8 mph - N/A   Mostly Cloudy
6:57 PM 79.0 °F - 62.1 °F 56% 29.99 in 7.0 mi South 5.8 mph - N/A   Mostly Cloudy
7:57 PM 77.2 °F - 61.0 °F 57% 30.01 in 7.0 mi South 5.8 mph - N/A   Mostly Cloudy
8:57 PM 77.0 °F - 61.0 °F 58% 30.03 in 7.0 mi South 4.6 mph - N/A   Overcast
9:57 PM 77.7 °F - 63.0 °F 60% 30.03 in 7.0 mi SE 3.5 mph - N/A   Mostly Cloudy
10:57 PM 77.9 °F - 64.0 °F 62% 30.04 in 7.0 mi South 4.6 mph - N/A   Overcast
11:57 PM 77.9 °F - 64.0 °F 62% 30.01 in 7.0 mi SSW 13.8 mph 21.9 mph N/A   Mostly Cloudy